Regional Weather Roundup
Issued by NWS Cleveland, OH

Home | Current Version | Previous Version | Text Only | Print | Product List | Glossary Off
Versions: 1 2 3 4 5 6 7 8 9 10 11 12 13 14 15 16 17 18 19 20 21 22 23 24 25 26 27 28 29 30 31 32 33 34 35 36 37 38 39 40 41 42 43 44 45 46 47 48 49 50

000
ASUS41 KCLE 281612
RWRCLE
OHIO REGIONAL WEATHER ROUNDUP
NATIONAL WEATHER SERVICE WILMINGTON, OH
1200 PM EDT FRI APR 28 2017

NOTE: "FAIR" INDICATES FEW OR NO CLOUDS BELOW 12,000 FEET WITH NO
SIGNIFICANT WEATHER AND/OR OBSTRUCTIONS TO VISIBILITY.

OHZ001>008-015>018-024>027-034-035-043-044-281700-
   NORTHWEST OHIO

CITY           SKY/WX    TMP DP  RH WIND       PRES   REMARKS
DEFIANCE       FAIR      55  41  59 S9        29.99F
FINDLAY        FAIR      58  40  51 S9        30.01S
TOLEDO EXPRESS FAIR      57  40  52 S9        30.00F
TOLEDO EXEC    FAIR      58  42  55 S10       30.01F
LIMA           FAIR      55  45  68 S10       30.02S
$$

OHZ009>014-019>023-028>033-038-089-281700-
   NORTHEAST OHIO

CITY           SKY/WX    TMP DP  RH WIND       PRES   REMARKS
CLE-HOPKINS    PTSUNNY   61  41  47 SW12      30.07R
CLE-LAKEFRONT  FAIR      57  45  64 NW12      30.04R
CUY CO. ARPT   MOSUNNY  N/A N/A N/A S6        30.04F
LORAIN-ELYRIA  FAIR      57  40  52 VRB5      30.04S
ASHTABULA      FAIR      60  44  55 SW10      30.04S
AKRON-CANTON   PTSUNNY   60  45  57 S10       30.04S
WOOSTER        FAIR      57  45  64 S6        30.04F
MANSFIELD      FAIR      56  44  64 VRB5      30.03F
YOUNGSTOWN     CLOUDY    61  46  57 SW9       30.04R
$$

OHZ042-051>053-060>062-070>072-077>081-281700-
  SOUTHWEST OHIO

CITY           SKY/WX    TMP DP  RH WIND       PRES   REMARKS
CINC-COVINGTON PTSUNNY   63  50  62 VRB6      30.00R
CINC-LUNKEN    FAIR      65  53  65 SE5       30.00S
HAMILTON       FAIR      61  50  67 VRB5      30.03R
DAYTON         CLOUDY    56  47  71 SE8       30.02S
WRIGHT-PAT AFB FAIR      58  49  71 E6        30.02S
DAYTON GENERAL FAIR      58  48  69 SE3       30.01S
WILMINGTON     FAIR      61  51  70 SE6       30.01R
$$

OHZ036-037-039>041-045>050-054>059-063>069-073>076-082>088-281700-
  CENTRAL AND SOUTHEAST OHIO

CITY           SKY/WX    TMP DP  RH WIND       PRES   REMARKS
COLUMBUS       PTSUNNY   61  48  62 S7        30.02F
OSU AIRPORT    FAIR      61  49  64 S9        30.03R
BOLTON FIELD   MOSUNNY   61  48  63 SE7       30.03R
RICKENBACK AFB FAIR      62  47  59 S9        30.02S
NEWARK         FAIR      62  46  55 S9        30.03F
MARION         FAIR      56  45  66 S9        30.04R
LANCASTER      FAIR      65  51  60 SE10      30.02F
ZANESVILLE     FAIR      63  48  58 SE7       30.05S
NEW PHILLY     FAIR      64  49  57 CALM      30.05F
$$




USA.gov is the U.S. government's official web portal to all federal, state and local government web resources and services.